Location: Unspecified
(0.0000°N, 0.0000°E)
Time: 20:59:47
(UTC+00:00)

Altair - Pass Details

Date: 05 October 2020
Orbit: 1502 x 1682 km, 47.2° (Epoch: 20 October)

Event Time Altitude Azimuth Distance (km) Brightness Sun altitude
Rises 21:57:59 0° 288° (WNW) 4,872 10.5 -62.0°
Reaches altitude 10° 22:02:14 10° 273° (W) 3,858 9.8 -63.1°
Enters shadow 22:03:21 13° 267° (W) 3,637 9.7 -63.3°
